TimeCDT,TemperatureF,Dew PointF,Humidity,Sea Level PressureIn,VisibilityMPH,Wind Direction,Wind SpeedMPH,Gust SpeedMPH,PrecipitationIn,Events,Conditions,WindDirDegrees,DateUTC
12:22 AM,66.2,64.4,94,29.94,9.0,South,3.5,-,N/A,,Overcast,180,2013-10-16 05:22:00
12:37 AM,66.2,64.4,94,29.94,8.0,SSW,4.6,-,N/A,,Overcast,210,2013-10-16 05:37:00
12:53 AM,66.9,64.0,90,29.93,7.0,SSW,3.5,-,N/A,,Overcast,200,2013-10-16 05:53:00
1:03 AM,66.2,64.4,94,29.93,7.0,SSW,8.1,-,N/A,,Overcast,200,2013-10-16 06:03:00
1:14 AM,66.2,64.4,94,29.93,7.0,SSW,5.8,-,N/A,,Overcast,210,2013-10-16 06:14:00
1:36 AM,66.2,64.4,94,29.94,6.0,WSW,4.6,-,N/A,,Mostly Cloudy,250,2013-10-16 06:36:00
1:43 AM,66.2,64.4,94,29.94,6.0,WSW,4.6,-,N/A,,Mostly Cloudy,240,2013-10-16 06:43:00
1:53 AM,66.9,64.0,90,29.94,6.0,WSW,5.8,-,N/A,,Overcast,240,2013-10-16 06:53:00
2:32 AM,64.4,59.0,83,29.95,10.0,NNW,6.9,19.6,N/A,,Overcast,340,2013-10-16 07:32:00
2:53 AM,63.0,57.9,84,29.94,10.0,North,12.7,-,N/A,,Overcast,350,2013-10-16 07:53:00
3:09 AM,62.6,53.6,72,29.97,10.0,NNW,8.1,-,N/A,,Overcast,330,2013-10-16 08:09:00
3:53 AM,61.0,52.0,72,29.96,10.0,North,6.9,-,N/A,,Overcast,360,2013-10-16 08:53:00
4:53 AM,60.1,52.0,75,29.97,10.0,NNW,6.9,-,0.00,,Overcast,340,2013-10-16 09:53:00
5:53 AM,60.1,52.0,75,30.00,10.0,NW,8.1,-,N/A,,Overcast,320,2013-10-16 10:53:00
6:53 AM,57.9,51.1,78,30.00,10.0,NNW,6.9,-,N/A,,Overcast,330,2013-10-16 11:53:00
7:20 AM,57.2,51.8,82,30.00,10.0,NNW,5.8,-,N/A,,Overcast,340,2013-10-16 12:20:00
7:53 AM,57.9,50.0,75,30.01,10.0,North,5.8,-,N/A,,Overcast,350,2013-10-16 12:53:00
8:53 AM,57.9,50.0,75,30.01,10.0,North,5.8,-,N/A,,Scattered Clouds,360,2013-10-16 13:53:00
9:53 AM,59.0,50.0,72,30.02,10.0,North,6.9,-,N/A,,Overcast,350,2013-10-16 14:53:00
10:53 AM,60.1,48.9,67,30.02,10.0,Calm,Calm,-,N/A,,Overcast,0,2013-10-16 15:53:00
11:53 AM,61.0,51.1,70,30.01,10.0,WNW,4.6,-,0.00,,Overcast,290,2013-10-16 16:53:00
12:09 PM,60.8,50.0,68,30.02,10.0,NW,4.6,-,N/A,,Overcast,320,2013-10-16 17:09:00
12:53 PM,61.0,51.1,70,29.99,10.0,Variable,4.6,-,N/A,,Overcast,0,2013-10-16 17:53:00
1:00 PM,60.8,51.8,72,30.00,10.0,NNW,6.9,-,N/A,,Overcast,340,2013-10-16 18:00:00
1:53 PM,60.1,46.9,62,29.99,10.0,NW,8.1,-,N/A,,Overcast,310,2013-10-16 18:53:00
2:53 PM,63.0,48.9,60,29.97,10.0,North,5.8,-,N/A,,Mostly Cloudy,10,2013-10-16 19:53:00
3:53 PM,64.0,48.0,56,29.97,10.0,Calm,Calm,-,N/A,,Scattered Clouds,0,2013-10-16 20:53:00
4:53 PM,64.0,48.0,56,29.96,10.0,North,3.5,-,N/A,,Clear,350,2013-10-16 21:53:00
5:53 PM,62.1,48.0,60,29.96,10.0,Calm,Calm,-,N/A,,Clear,0,2013-10-16 22:53:00
6:53 PM,55.0,48.9,80,29.96,10.0,Calm,Calm,-,N/A,,Clear,0,2013-10-16 23:53:00
7:53 PM,52.0,48.9,89,29.97,10.0,Calm,Calm,-,N/A,,Clear,0,2013-10-17 00:53:00
8:53 PM,51.1,48.0,89,29.99,10.0,Calm,Calm,-,N/A,,Clear,0,2013-10-17 01:53:00
9:53 PM,50.0,46.9,89,29.99,9.0,Calm,Calm,-,N/A,,Clear,0,2013-10-17 02:53:00
10:53 PM,48.9,46.9,93,29.97,4.0,Calm,Calm,-,N/A,,Clear,0,2013-10-17 03:53:00
11:53 PM,48.0,46.0,93,29.98,10.0,Calm,Calm,-,N/A,,Partly Cloudy,0,2013-10-17 04:53:00